{"data":{"norad_id":65238,"intl_designator":"2025-179D","name":"STARLINK-34818","alt_names":[],"object_type":"PAYLOAD","status":"ACTIVE","operator":null,"country":"US","launch_date":"2025-08-18","launch_site_code":"AFWTR","launch_vehicle":null,"mission":null,"orbit_class":"UNKNOWN","rcs_meters":null,"size_class":null,"mass_kg":null,"dimensions":null,"purposes":["comms"],"wikipedia_slug":null,"has_3d_model":false,"image_url":null,"decayed_at":null,"tle_current":{"epoch":"2026-09-20T20:49:30.993312Z","epoch_age_seconds":86087,"freshness":"FRESH","line1":"1 65238U 25179D   26263.86771983  .00011974  00000+0  37264-3 0  9992","line2":"2 65238  97.2867 303.1056 0001883 100.1301 260.0154 15.33443942 61091","mean_motion":15.33443942,"eccentricity":0.0001883,"inclination_deg":97.2867,"raan_deg":303.1056,"arg_perigee_deg":100.1301,"mean_anomaly_deg":260.0154,"bstar":0.00037264,"rev_number":6109,"period_min":93.906269447442,"perigee_km":464.25765677398,"apogee_km":466.83498791317,"semimajor_km":6843.6833223436,"source":"CELESTRAK","updated_at":"2026-09-21T09:00:35.540082Z"}}}